Location: Hylvaty SDH
(49.9612°N, 16.4057°E)
Time: 12:17:00
(UTC+01:00)

Tiros 1 - Pass Details

Date: 08 October 2020
Orbit: 630 x 663 km, 48.4° (Epoch: 28 October)

Event Time Altitude Azimuth Distance (km) Brightness Sun altitude
Rises 14:29:12 0° 264° (W) 2,939 11.0 29.2°
Reaches altitude 10° 14:31:31 10° 263° (W) 2,035 10.4 29.0°
Maximum altitude 14:36:12 75° 179° (S) 674 8.0 28.6°
Drops below altitude 10° 14:40:56 10° 94° (E) 2,058 9.5 28.2°
Sets 14:43:17 0° 93° (E) 2,974 10.3 28.0°
